• En España
  • Lista de países
  • Para 7 días
  • Temperatura del agua
  • Mapa Satelital
  • El tiempo en el mapa
  • Informadores
  • user-avatar
    Iniciar sesión

    Tiempo cada hora Wien

    Hoy, 21 Octubre, Sábado

    Tiempo Temperatura Precipitaciones Viento Presión Humedad
    00:00 +10°C° 0 mm 0 mps 745 mmHg 77%
    01:00 +10°C° 0 mm 0 mps 744 mmHg 76%
    02:00 +10°C° 0 mm 0 mps 744 mmHg 76%
    03:00 +10°C° 0 mm 0 mps 744 mmHg 76%
    04:00 +10°C° 0 mm 0 mps 744 mmHg 75%
    05:00 +10°C° 0 mm 0 mps 744 mmHg 75%
    06:00 +11°C° 0 mm 1 mps 744 mmHg 74%
    07:00 +12°C° 0 mm 1 mps 744 mmHg 73%
    08:00 +13°C° 0,4 mm 1 mps 744 mmHg 72%
    09:00 +14°C° 0,4 mm 1 mps 744 mmHg 71%
    10:00 +15°C° 0,4 mm 1 mps 744 mmHg 70%
    11:00 +16°C° 0,2 mm 1 mps 744 mmHg 70%
    12:00 +16°C° 0,2 mm 1 mps 744 mmHg 70%
    13:00 +18°C° 0,2 mm 1 mps 744 mmHg 71%
    14:00 +18°C° 0 mm 1 mps 743 mmHg 71%
    15:00 +18°C° 0 mm 1 mps 743 mmHg 71%
    16:00 +18°C° 0 mm 1 mps 743 mmHg 72%
    17:00 +16°C° 0 mm 1 mps 743 mmHg 76%
    18:00 +15°C° 0 mm 1 mps 743 mmHg 79%
    19:00 +14°C° 0 mm 1 mps 743 mmHg 83%
    20:00 +14°C° 0 mm 1 mps 743 mmHg 84%
    21:00 +13°C° 0 mm 1 mps 743 mmHg 85%
    22:00 +13°C° 0 mm 1 mps 743 mmHg 86%
    23:00 +13°C° 0 mm 1 mps 743 mmHg 87%

    Mañana, 22 Octubre, Domingo

    Tiempo Temperatura Precipitaciones Viento Presión Humedad
    00:00 +13°C° 0 mm 1 mps 743 mmHg 87%
    01:00 +13°C° 0 mm 1 mps 743 mmHg 88%
    02:00 +12°C° 0 mm 1 mps 742 mmHg 88%
    03:00 +12°C° 0 mm 1 mps 742 mmHg 89%
    04:00 +12°C° 0 mm 1 mps 742 mmHg 89%
    05:00 +12°C° 0,1 mm 1 mps 742 mmHg 89%
    06:00 +13°C° 0,1 mm 2 mps 743 mmHg 88%
    07:00 +13°C° 0,1 mm 2 mps 743 mmHg 88%
    08:00 +12°C° 0,3 mm 3 mps 743 mmHg 85%
    09:00 +12°C° 0,3 mm 3 mps 743 mmHg 83%
    10:00 +12°C° 0,3 mm 4 mps 743 mmHg 81%
    11:00 +12°C° 0,5 mm 4 mps 743 mmHg 81%
    12:00 +12°C° 0,5 mm 4 mps 743 mmHg 82%
    13:00 +12°C° 0,5 mm 4 mps 743 mmHg 82%
    14:00 +11°C° 0,6 mm 4 mps 743 mmHg 84%
    15:00 +11°C° 0,6 mm 4 mps 742 mmHg 85%
    16:00 +11°C° 0,6 mm 3 mps 742 mmHg 86%
    17:00 +11°C° 1,1 mm 4 mps 742 mmHg 86%
    18:00 +10°C° 1,1 mm 4 mps 743 mmHg 86%
    19:00 +10°C° 1,1 mm 4 mps 743 mmHg 86%
    20:00 +10°C° 0,5 mm 4 mps 743 mmHg 85%
    21:00 +9°C° 0,5 mm 5 mps 743 mmHg 84%
    22:00 +8°C° 0,5 mm 5 mps 743 mmHg 83%
    23:00 +8°C° 0,1 mm 5 mps 743 mmHg 82%

    Pasado mañana, 23 Octubre, Lunes

    Tiempo Temperatura Precipitaciones Viento Presión Humedad
    00:00 +8°C° 0,1 mm 5 mps 742 mmHg 81%
    01:00 +8°C° 0,1 mm 6 mps 742 mmHg 79%
    02:00 +8°C° 0,1 mm 6 mps 742 mmHg 80%
    03:00 +8°C° 0,1 mm 6 mps 742 mmHg 80%
    04:00 +8°C° 0,1 mm 6 mps 742 mmHg 80%
    05:00 +7°C° 0 mm 6 mps 742 mmHg 80%
    06:00 +7°C° 0 mm 6 mps 742 mmHg 80%
    07:00 +6°C° 0 mm 7 mps 742 mmHg 80%
    08:00 +8°C° 0,1 mm 7 mps 742 mmHg 78%
    09:00 +8°C° 0,1 mm 7 mps 742 mmHg 76%
    10:00 +9°C° 0,1 mm 8 mps 742 mmHg 74%
    11:00 +9°C° 0,1 mm 8 mps 742 mmHg 72%
    12:00 +9°C° 0,1 mm 8 mps 742 mmHg 71%
    13:00 +9°C° 0,1 mm 8 mps 742 mmHg 70%
    14:00 +9°C° 0,1 mm 8 mps 742 mmHg 70%
    15:00 +9°C° 0,1 mm 7 mps 742 mmHg 69%
    16:00 +9°C° 0,1 mm 7 mps 742 mmHg 69%
    17:00 +9°C° 0 mm 7 mps 743 mmHg 70%
    18:00 +9°C° 0 mm 7 mps 743 mmHg 71%
    19:00 +8°C° 0 mm 7 mps 743 mmHg 72%
    20:00 +8°C° 0 mm 7 mps 743 mmHg 73%
    21:00 +8°C° 0 mm 7 mps 744 mmHg 75%
    22:00 +8°C° 0 mm 7 mps 744 mmHg 76%
    23:00 +8°C° 0 mm 6 mps 744 mmHg 78%

    24 Octubre, Martes

    Tiempo Temperatura Precipitaciones Viento Presión Humedad
    00:00 +8°C° 0 mm 6 mps 744 mmHg 79%
    01:00 +8°C° 0 mm 6 mps 744 mmHg 80%
    02:00 +8°C° 0,1 mm 6 mps 744 mmHg 80%
    03:00 +8°C° 0,1 mm 6 mps 744 mmHg 80%
    04:00 +8°C° 0,1 mm 6 mps 744 mmHg 80%
    05:00 +8°C° 0,1 mm 7 mps 745 mmHg 80%
    06:00 +8°C° 0,1 mm 7 mps 745 mmHg 80%
    07:00 +8°C° 0,1 mm 7 mps 745 mmHg 79%
    08:00 +8°C° 0,2 mm 7 mps 746 mmHg 77%
    09:00 +9°C° 0,2 mm 7 mps 746 mmHg 76%
    10:00 +9°C° 0,2 mm 7 mps 747 mmHg 74%
    11:00 +10°C° 0,1 mm 7 mps 747 mmHg 71%
    12:00 +10°C° 0,1 mm 7 mps 747 mmHg 69%
    13:00 +11°C° 0,1 mm 7 mps 747 mmHg 67%
    14:00 +11°C° 0 mm 7 mps 748 mmHg 68%
    15:00 +10°C° 0 mm 6 mps 748 mmHg 69%
    16:00 +10°C° 0 mm 6 mps 749 mmHg 71%
    17:00 +10°C° 0 mm 6 mps 749 mmHg 73%
    18:00 +9°C° 0 mm 5 mps 750 mmHg 75%
    19:00 +8°C° 0 mm 5 mps 750 mmHg 77%
    20:00 +8°C° 0 mm 5 mps 751 mmHg 79%
    21:00 +8°C° 0 mm 4 mps 751 mmHg 80%
    22:00 +7°C° 0 mm 4 mps 751 mmHg 82%
    23:00 +7°C° 0 mm 4 mps 751 mmHg 83%

    25 Octubre, Miércoles

    Tiempo Temperatura Precipitaciones Viento Presión Humedad
    00:00 +6°C° 0 mm 4 mps 751 mmHg 84%
    01:00 +6°C° 0 mm 4 mps 751 mmHg 85%
    02:00 +6°C° 0 mm 4 mps 751 mmHg 85%
    03:00 +6°C° 0 mm 4 mps 752 mmHg 85%
    04:00 +6°C° 0 mm 4 mps 752 mmHg 85%
    05:00 +5°C° 0 mm 4 mps 752 mmHg 85%
    06:00 +5°C° 0 mm 4 mps 752 mmHg 85%
    07:00 +5°C° 0 mm 4 mps 752 mmHg 85%
    08:00 +6°C° 0 mm 4 mps 752 mmHg 77%
    09:00 +7°C° 0 mm 4 mps 752 mmHg 69%
    10:00 +8°C° 0 mm 4 mps 752 mmHg 61%
    11:00 +10°C° 0 mm 4 mps 752 mmHg 57%
    12:00 +10°C° 0 mm 5 mps 752 mmHg 53%
    13:00 +10°C° 0 mm 5 mps 752 mmHg 49%
    14:00 +11°C° 0 mm 4 mps 752 mmHg 50%
    15:00 +10°C° 0 mm 4 mps 752 mmHg 51%
    16:00 +10°C° 0 mm 4 mps 752 mmHg 52%
    17:00 +8°C° 0 mm 3 mps 753 mmHg 55%
    18:00 +7°C° 0 mm 3 mps 753 mmHg 57%
    19:00 +5°C° 0 mm 3 mps 754 mmHg 60%
    20:00 +4°C° 0 mm 3 mps 754 mmHg 62%
    21:00 +4°C° 0 mm 2 mps 754 mmHg 63%
    22:00 +4°C° 0 mm 2 mps 755 mmHg 65%
    23:00 +3°C° 0 mm 2 mps 755 mmHg 66%

    26 Octubre, Jueves

    Tiempo Temperatura Precipitaciones Viento Presión Humedad
    00:00 +3°C° 0 mm 2 mps 755 mmHg 67%
    01:00 +2°C° 0 mm 2 mps 755 mmHg 67%
    02:00 +2°C° 0 mm 2 mps 755 mmHg 68%
    03:00 +2°C° 0 mm 2 mps 755 mmHg 68%
    04:00 +2°C° 0 mm 2 mps 755 mmHg 68%
    05:00 +2°C° 0 mm 2 mps 755 mmHg 68%
    06:00 +1°C° 0 mm 2 mps 755 mmHg 67%
    07:00 +1°C° 0 mm 2 mps 755 mmHg 67%
    08:00 +3°C° 0 mm 2 mps 755 mmHg 60%
    09:00 +5°C° 0 mm 2 mps 755 mmHg 52%
    10:00 +7°C° 0 mm 2 mps 755 mmHg 45%
    11:00 +8°C° 0 mm 2 mps 755 mmHg 41%
    12:00 +10°C° 0 mm 2 mps 755 mmHg 37%
    13:00 +12°C° 0 mm 2 mps 754 mmHg 33%
    14:00 +10°C° 0 mm 2 mps 754 mmHg 36%
    15:00 +10°C° 0 mm 1 mps 754 mmHg 40%
    16:00 +10°C° 0 mm 1 mps 754 mmHg 43%
    17:00 +9°C° 0 mm 1 mps 755 mmHg 45%
    18:00 +8°C° 0 mm 1 mps 755 mmHg 46%
    19:00 +6°C° 0 mm 1 mps 755 mmHg 47%
    20:00 +6°C° 0 mm 1 mps 755 mmHg 47%
    21:00 +6°C° 0 mm 1 mps 756 mmHg 47%
    22:00 +6°C° 0 mm 1 mps 756 mmHg 47%
    23:00 +5°C° 0 mm 1 mps 756 mmHg 46%
    Mostrar más